Regional Weather Roundup
Issued by NWS Cleveland, OH

Home | Current Version | Previous Version | Text Only | Print | Product List | Glossary On
Versions: 1 2 3 4 5 6 7 8 9 10 11 12 13 14 15 16 17 18 19 20 21 22 23 24 25 26 27 28 29 30 31 32 33 34 35 36 37 38 39 40 41 42 43 44 45 46 47 48 49 50
000
ASUS41 KCLE 230712
RWRCLE
OHIO REGIONAL WEATHER ROUNDUP
NATIONAL WEATHER SERVICE WILMINGTON, OH
300 AM EDT WED MAY 23 2018

NOTE: "FAIR" INDICATES FEW OR NO CLOUDS BELOW 12,000 FEET WITH NO
SIGNIFICANT WEATHER AND/OR OBSTRUCTIONS TO VISIBILITY.

OHZ001>008-015>018-024>027-034-035-043-044-230800-
   NORTHWEST OHIO

CITY           SKY/WX    TMP DP  RH WIND       PRES   REMARKS
DEFIANCE       FAIR      55  53  93 CALM      30.09R
FINDLAY        FAIR      59  55  87 N9        30.07R
TOLEDO EXPRESS FAIR      57  57 100 NW3       30.08R
TOLEDO EXEC    FAIR      56  53  90 NW3       30.08S
LIMA           FAIR      59  56  89 N6        30.07R
$$

OHZ009>014-019>023-028>033-038-089-230800-
   NORTHEAST OHIO

CITY           SKY/WX    TMP DP  RH WIND       PRES   REMARKS
CLE-HOPKINS    CLOUDY    58  55  90 N6        30.07R
CLE-LAKEFRONT  CLOUDY    56  52  86 NW6       30.05R
CUY CO. ARPT   NOT AVBL
LORAIN-ELYRIA  CLOUDY    56  50  80 NW7       30.07R
ASHTABULA      CLOUDY    53  52  96 NW7       30.04R
AKRON-CANTON   CLOUDY    60  55  83 N9        30.04R
WOOSTER        CLOUDY    60  57  89 N7        30.05S FOG
MANSFIELD      CLOUDY    59  57  93 N8        30.06R
YOUNGSTOWN     CLOUDY    58  55  90 NW12      30.01S
$$

OHZ042-051>053-060>062-070>072-077>081-230800-
  SOUTHWEST OHIO

CITY           SKY/WX    TMP DP  RH WIND       PRES   REMARKS
CINC-COVINGTON FAIR      67  58  72 NE7       30.06R
CINC-LUNKEN    FAIR      62  62 100 CALM      30.06R FOG
HAMILTON       FAIR      65  60  84 CALM      30.07R
DAYTON         FAIR      60  60 100 NW7       30.07S
WRIGHT-PAT AFB FAIR      63  59  87 CALM      30.06R
DAYTON GENERAL FAIR      64  58  80 N6        30.05S
WILMINGTON     FAIR      61  61 100 CALM      30.05S
$$

OHZ036-037-039>041-045>050-054>059-063>069-073>076-082>088-230800-
  CENTRAL AND SOUTHEAST OHIO

CITY           SKY/WX    TMP DP  RH WIND       PRES   REMARKS
COLUMBUS       CLOUDY    65  61  87 N7        30.03F
OSU AIRPORT    FAIR      61  58  90 N7        30.04S
BOLTON FIELD   FAIR      63  60  93 NE8       30.05S
RICKENBACK AFB MOCLDY    64  63  98 MISG      30.03S
NEWARK         FAIR      62  60  93 CALM      30.03F
MARION         FAIR      60  56  86 N7        30.06S
LANCASTER      FAIR      62  62 100 CALM      30.04S
ZANESVILLE     FAIR      63  61  93 N5        30.02F
NEW PHILLY     FAIR      63  62  97 W5        30.02S FOG
$$




USA.gov is the U.S. government's official web portal to all federal, state and local government web resources and services.